Вернуться в каталог

METEOR 2-8 DEB

АктивенPO
NORAD 36325·DEBRIS·🇷🇺 Russia

Запущен Mar 25, 1982 с Plesetsk Cosmodrome

Loading…

Ближайшие Пролёты (ближайшие 24 часа)

TLE

СвежийSource: Space-Track

Эпоха: Sep 14, 2026, 10:08 UTC

1 36325U 82025K   26257.42272596  .00000881  00000-0  40122-3 0  9994
2 36325  82.5127 152.7697 0018714  24.9483 335.2597 14.20643583664875

Отслеживайте METEOR 2-8 DEB в реальном времени с AllMySat

Download on the App Store